• In Hungary
  • List of Countries
  • For 7 days
  • Water Temperature
  • Satellite Maps
  • Weather Map
  • News
  • Weather Widgets
  • user-avatar
    Login

    Hourly Weather Habarovsk

    Today, 23 June, Saturday

    Time Temperature Precipitation Wind Pressure Humidity
    00:00 +15°C° 0.7 mm 2 mps 734 mmHg 95%
    01:00 +13°C° 0.5 mm 3 mps 734 mmHg 95%
    02:00 +13°C° 0.5 mm 3 mps 734 mmHg 95%
    03:00 +13°C° 0 mm 4 mps 733 mmHg 97%
    04:00 +12°C° 0.3 mm 5 mps 734 mmHg 96%
    05:00 +10°C° 0.3 mm 5 mps 734 mmHg 95%
    06:00 +9°C° 0.3 mm 6 mps 734 mmHg 94%
    07:00 +9°C° 0.1 mm 6 mps 735 mmHg 93%
    08:00 +9°C° 0.1 mm 5 mps 735 mmHg 92%
    09:00 +9°C° 0 mm 5 mps 735 mmHg 92%
    10:00 +9°C° 0.1 mm 5 mps 736 mmHg 90%
    11:00 +9°C° 0.1 mm 5 mps 736 mmHg 88%
    12:00 +10°C° 0.1 mm 5 mps 736 mmHg 85%
    13:00 +12°C° 0 mm 5 mps 737 mmHg 82%
    14:00 +12°C° 0 mm 5 mps 737 mmHg 79%
    15:00 +13°C° 0 mm 4 mps 737 mmHg 76%
    16:00 +13°C° 0 mm 4 mps 738 mmHg 77%
    17:00 +13°C° 0 mm 3 mps 738 mmHg 78%
    18:00 +13°C° 0 mm 3 mps 738 mmHg 79%
    19:00 +13°C° 0 mm 2 mps 738 mmHg 82%
    20:00 +12°C° 0 mm 2 mps 739 mmHg 85%
    21:00 +11°C° 0 mm 1 mps 739 mmHg 88%
    22:00 +10°C° 0 mm 1 mps 739 mmHg 89%
    23:00 +10°C° 0 mm 1 mps 739 mmHg 89%

    Tomorrow, 24 June, Sunday

    Time Temperature Precipitation Wind Pressure Humidity
    00:00 +9°C° 0 mm 0 mps 739 mmHg 90%
    01:00 +9°C° 0 mm 0 mps 739 mmHg 90%
    02:00 +10°C° 0 mm 1 mps 740 mmHg 90%
    03:00 +10°C° 0 mm 1 mps 740 mmHg 90%
    04:00 +10°C° 0.1 mm 1 mps 740 mmHg 90%
    05:00 +10°C° 0.1 mm 1 mps 740 mmHg 90%
    06:00 +11°C° 0.1 mm 1 mps 740 mmHg 90%
    07:00 +12°C° 0.1 mm 1 mps 741 mmHg 88%
    08:00 +13°C° 0.1 mm 2 mps 741 mmHg 86%
    09:00 +13°C° 0.1 mm 2 mps 741 mmHg 85%
    10:00 +12°C° 0.3 mm 3 mps 741 mmHg 86%
    11:00 +12°C° 0.3 mm 3 mps 742 mmHg 87%
    12:00 +12°C° 0.3 mm 4 mps 742 mmHg 89%
    13:00 +13°C° 0 mm 4 mps 742 mmHg 83%
    14:00 +14°C° 0 mm 5 mps 742 mmHg 77%
    15:00 +15°C° 0 mm 5 mps 743 mmHg 71%
    16:00 +15°C° 0 mm 5 mps 743 mmHg 72%
    17:00 +15°C° 0 mm 4 mps 743 mmHg 74%
    18:00 +14°C° 0 mm 4 mps 743 mmHg 76%
    19:00 +13°C° 0 mm 3 mps 744 mmHg 81%
    20:00 +11°C° 0 mm 3 mps 744 mmHg 86%
    21:00 +10°C° 0 mm 2 mps 745 mmHg 91%
    22:00 +9°C° 0 mm 2 mps 745 mmHg 92%
    23:00 +9°C° 0 mm 2 mps 745 mmHg 92%

    Day after tomorrow, 25 June, Monday

    Time Temperature Precipitation Wind Pressure Humidity
    00:00 +8°C° 0 mm 2 mps 745 mmHg 93%
    01:00 +8°C° 0 mm 2 mps 745 mmHg 93%
    02:00 +8°C° 0 mm 2 mps 745 mmHg 94%
    03:00 +7°C° 0 mm 2 mps 746 mmHg 94%
    04:00 +9°C° 0 mm 1 mps 746 mmHg 92%
    05:00 +10°C° 0 mm 1 mps 746 mmHg 90%
    06:00 +11°C° 0 mm 1 mps 746 mmHg 89%
    07:00 +13°C° 0 mm 1 mps 746 mmHg 83%
    08:00 +15°C° 0 mm 1 mps 746 mmHg 77%
    09:00 +16°C° 0 mm 1 mps 746 mmHg 71%
    10:00 +19°C° 0 mm 1 mps 746 mmHg 68%
    11:00 +20°C° 0 mm 1 mps 746 mmHg 65%
    12:00 +21°C° 0 mm 1 mps 746 mmHg 62%
    13:00 +22°C° 0 mm 1 mps 746 mmHg 61%
    14:00 +22°C° 0 mm 1 mps 745 mmHg 60%
    15:00 +21°C° 0 mm 0 mps 745 mmHg 59%
    16:00 +21°C° 0 mm 0 mps 745 mmHg 62%
    17:00 +21°C° 0 mm 0 mps 745 mmHg 66%
    18:00 +20°C° 0 mm 0 mps 745 mmHg 69%
    19:00 +20°C° 0 mm 1 mps 745 mmHg 74%
    20:00 +18°C° 0 mm 1 mps 745 mmHg 79%
    21:00 +15°C° 0 mm 1 mps 745 mmHg 83%
    22:00 +15°C° 0 mm 1 mps 745 mmHg 85%
    23:00 +14°C° 0 mm 1 mps 745 mmHg 86%

    26 June, Tuesday

    Time Temperature Precipitation Wind Pressure Humidity
    00:00 +14°C° 0 mm 1 mps 745 mmHg 88%
    01:00 +14°C° 0 mm 1 mps 745 mmHg 87%
    02:00 +14°C° 0 mm 2 mps 745 mmHg 85%
    03:00 +14°C° 0 mm 2 mps 744 mmHg 84%
    04:00 +14°C° 0 mm 2 mps 744 mmHg 85%
    05:00 +15°C° 0 mm 2 mps 744 mmHg 85%
    06:00 +15°C° 0 mm 2 mps 744 mmHg 86%
    07:00 +15°C° 0.7 mm 2 mps 744 mmHg 88%
    08:00 +14°C° 0.7 mm 2 mps 743 mmHg 91%
    09:00 +14°C° 0.7 mm 2 mps 743 mmHg 94%
    10:00 +13°C° 0.4 mm 3 mps 743 mmHg 94%
    11:00 +14°C° 0.4 mm 3 mps 743 mmHg 94%
    12:00 +14°C° 0.4 mm 3 mps 743 mmHg 95%
    13:00 +15°C° 0.2 mm 2 mps 742 mmHg 95%
    14:00 +15°C° 0.2 mm 2 mps 742 mmHg 95%
    15:00 +16°C° 0.2 mm 2 mps 742 mmHg 95%
    16:00 +16°C° 0.9 mm 2 mps 742 mmHg 96%
    17:00 +16°C° 0.9 mm 2 mps 741 mmHg 96%
    18:00 +18°C° 0.9 mm 1 mps 741 mmHg 97%
    19:00 +18°C° 0.4 mm 1 mps 741 mmHg 97%
    20:00 +18°C° 0.4 mm 1 mps 741 mmHg 96%
    21:00 +18°C° 0.4 mm 1 mps 740 mmHg 96%
    22:00 +18°C° 0.1 mm 1 mps 740 mmHg 96%
    23:00 +17°C° 0.1 mm 2 mps 739 mmHg 96%

    27 June, Wednesday

    Time Temperature Precipitation Wind Pressure Humidity
    00:00 +17°C° 0.1 mm 2 mps 739 mmHg 96%
    01:00 +17°C° 0.2 mm 2 mps 738 mmHg 96%
    02:00 +17°C° 0.2 mm 2 mps 738 mmHg 96%
    03:00 +17°C° 0.2 mm 2 mps 737 mmHg 96%
    04:00 +17°C° 0.8 mm 2 mps 736 mmHg 97%
    05:00 +17°C° 0.8 mm 2 mps 736 mmHg 97%
    06:00 +17°C° 0.8 mm 2 mps 735 mmHg 97%
    07:00 +17°C° 1.4 mm 3 mps 735 mmHg 97%
    08:00 +18°C° 1.4 mm 3 mps 734 mmHg 97%
    09:00 +18°C° 1.4 mm 3 mps 734 mmHg 97%
    10:00 +18°C° 1.9 mm 4 mps 733 mmHg 96%
    11:00 +17°C° 1.9 mm 5 mps 732 mmHg 96%
    12:00 +17°C° 1.9 mm 5 mps 731 mmHg 95%
    13:00 +17°C° 2.3 mm 5 mps 731 mmHg 95%
    14:00 +17°C° 2.3 mm 5 mps 730 mmHg 95%
    15:00 +18°C° 2.3 mm 4 mps 730 mmHg 94%
    16:00 +17°C° 0.7 mm 4 mps 729 mmHg 95%
    17:00 +17°C° 0.7 mm 3 mps 729 mmHg 95%
    18:00 +17°C° 0.7 mm 2 mps 729 mmHg 96%
    19:00 +17°C° 0.2 mm 2 mps 730 mmHg 96%
    20:00 +17°C° 0.2 mm 2 mps 730 mmHg 97%
    21:00 +16°C° 0.2 mm 3 mps 730 mmHg 97%
    22:00 +16°C° 0.2 mm 3 mps 731 mmHg 97%
    23:00 +16°C° 0.2 mm 3 mps 731 mmHg 97%

    28 June, Thursday

    Time Temperature Precipitation Wind Pressure Humidity
    00:00 +16°C° 0.2 mm 3 mps 731 mmHg 97%
    01:00 +16°C° 0.2 mm 3 mps 731 mmHg 97%
    02:00 +16°C° 0.2 mm 3 mps 731 mmHg 97%
    03:00 +16°C° 0.2 mm 3 mps 731 mmHg 97%
    04:00 +15°C° 0 mm 4 mps 731 mmHg 97%
    05:00 +17°C° 0 mm 4 mps 732 mmHg 96%
    06:00 +17°C° 0 mm 4 mps 732 mmHg 96%
    07:00 +18°C° 0 mm 4 mps 732 mmHg 92%
    08:00 +20°C° 0 mm 5 mps 733 mmHg 89%
    09:00 +21°C° 0 mm 5 mps 733 mmHg 86%
    10:00 +22°C° 0.2 mm 5 mps 733 mmHg 85%
    11:00 +22°C° 0.2 mm 5 mps 733 mmHg 83%
    12:00 +23°C° 0.2 mm 5 mps 733 mmHg 82%
    13:00 +25°C° 1 mm 4 mps 733 mmHg 82%
    14:00 +25°C° 1 mm 4 mps 733 mmHg 82%
    15:00 +25°C° 1 mm 4 mps 733 mmHg 82%
    16:00 +25°C° 0.7 mm 3 mps 733 mmHg 84%
    17:00 +25°C° 0.7 mm 3 mps 733 mmHg 86%
    18:00 +24°C° 0.7 mm 3 mps 734 mmHg 88%
    19:00 +22°C° 0.7 mm 3 mps 734 mmHg 90%
    20:00 +21°C° 0.7 mm 3 mps 735 mmHg 92%
    21:00 +19°C° 0.7 mm 3 mps 735 mmHg 94%
    22:00 +19°C° 0.5 mm 3 mps 735 mmHg 95%
    23:00 +18°C° 0.5 mm 2 mps 735 mmHg 95%
    Show more